Weather History for Detroit Lakes, MN

Change the Weather History Date:

Monday, November 11, 2013

  Actual Average Record
Temperature  
Mean Temperature 12 °F -  
Max Temperature 17 °F 35 °F 66 °F (2005)
Min Temperature 8 °F 17 °F -7 °F (1935)
Degree Days  
Heating Degree Days 52    
Moisture  
Dew Point 8 °F    
Average Humidity 80    
Maximum Humidity 92    
Minimum Humidity 68    
Precipitation  
Precipitation 0.00 in - - ()
Sea Level Pressure  
Sea Level Pressure 30.55 in    
Wind  
Wind Speed 13 mph (North)    
Max Wind Speed 20 mph    
Max Gust Speed 31 mph    
Visibility 9 miles    
Events Snow    
Averages and records for this station are not official NWS values.
T = Trace of Precipitation, MM = Missing Value Source: NWS Daily Summary

Daily Weather History Graph

Daily Weather History Graph

Search for Another Location

Airport:

Trip Planner

Search our weather history database for the weather conditions in past years. The results will help you decide how hot, cold, wet, or windy it might be!

Date:

Astronomy

Nov. 11, 2013 Rise Set
Actual Time 7:20 AM CST 4:53 PM CST
Civil Twilight 6:48 AM CST 5:26 PM CST
Nautical Twilight 6:11 AM CST 6:02 PM CST
Astronomical Twilight 5:36 AM CST 6:38 PM CST
Moon 1:55 PM CST (11/11) 12:44 AM CST (11/11)
Length of Visible Light 10h 38m
Length of Day
9h 32m
Waxing Gibbous, 66% of the Moon is Illuminated
Nov 11
Waxing Gibbous
Nov 17
Full
Nov 25
Last Quarter
Dec 2
New
Dec 9
First Quarter

Hourly Weather History & Observations

Time (CST) Temp. Windchill Dew Point Humidity Pressure Visibility Wind Dir Wind Speed Gust Speed Precip Events Conditions
12:15 AM 17.6 °F 1.7 °F 12.2 °F 79% 30.29 in 10.0 mi North 18.4 mph 29.9 mph N/A Snow Light Snow
12:35 AM 17.6 °F 1.7 °F 12.2 °F 79% 30.30 in 10.0 mi NNW 18.4 mph 23.0 mph N/A Snow Light Snow
12:55 AM 15.8 °F 1.4 °F 12.2 °F 86% 30.31 in 10.0 mi North 13.8 mph 23.0 mph N/A Snow Light Snow
1:15 AM 15.8 °F 0.9 °F 10.4 °F 79% 30.31 in 10.0 mi North 15.0 mph 24.2 mph N/A Snow Light Snow
1:35 AM 15.8 °F 1.4 °F 12.2 °F 86% 30.32 in 10.0 mi North 13.8 mph 21.9 mph N/A Snow Light Snow
1:55 AM 15.8 °F 4.2 °F 10.4 °F 79% 30.33 in 10.0 mi North 9.2 mph 25.3 mph N/A Snow Light Snow
2:15 AM 14.0 °F -1.4 °F 8.6 °F 79% 30.34 in 10.0 mi North 15.0 mph 25.3 mph N/A Snow Light Snow
2:35 AM 14.0 °F 2.0 °F 8.6 °F 79% 30.35 in 10.0 mi North 9.2 mph 26.5 mph N/A   Scattered Clouds
2:55 AM 14.0 °F 0.5 °F 6.8 °F 73% 30.36 in - North 11.5 mph 31.1 mph N/A   Scattered Clouds
3:15 AM 12.2 °F -5.8 °F 8.6 °F 85% 30.36 in - North 19.6 mph 28.8 mph N/A   Clear
3:35 AM 12.2 °F -4.8 °F 6.8 °F 79% 30.36 in 10.0 mi North 17.3 mph 29.9 mph N/A   Clear
3:55 AM 12.2 °F -3.1 °F 6.8 °F 79% 30.37 in 10.0 mi North 13.8 mph 26.5 mph N/A   Clear
4:15 AM 12.2 °F -1.8 °F 6.8 °F 79% 30.38 in 10.0 mi North 11.5 mph 23.0 mph N/A   Clear
4:35 AM 12.2 °F -3.1 °F 6.8 °F 79% 30.39 in 10.0 mi North 13.8 mph 23.0 mph N/A   Clear
4:55 AM 12.2 °F -3.1 °F 5.0 °F 73% 30.40 in 10.0 mi North 13.8 mph 28.8 mph N/A   Clear
5:15 AM 10.4 °F -4.1 °F 5.0 °F 79% 30.41 in 10.0 mi North 11.5 mph 27.6 mph N/A   Clear
5:35 AM 10.4 °F -4.1 °F 6.8 °F 85% 30.42 in 10.0 mi North 11.5 mph 21.9 mph N/A   Clear
5:55 AM 10.4 °F -4.8 °F 5.0 °F 79% 30.43 in 10.0 mi North 12.7 mph 25.3 mph N/A   Scattered Clouds
6:15 AM 10.4 °F -3.3 °F 5.0 °F 79% 30.44 in 10.0 mi North 10.4 mph 25.3 mph N/A   Scattered Clouds
6:35 AM 10.4 °F -4.1 °F 5.0 °F 79% 30.44 in 10.0 mi North 11.5 mph 21.9 mph N/A   Scattered Clouds
6:55 AM 10.4 °F -3.3 °F 5.0 °F 79% 30.46 in 10.0 mi North 10.4 mph 18.4 mph N/A   Mostly Cloudy
7:15 AM 8.6 °F -2.6 °F 5.0 °F 85% 30.47 in 10.0 mi North 6.9 mph 18.4 mph N/A Snow Light Snow
7:35 AM 10.4 °F -1.5 °F 5.0 °F 79% 30.49 in 7.0 mi North 8.1 mph 11.5 mph N/A Snow Light Snow
7:55 AM 10.4 °F -4.1 °F 5.0 °F 79% 30.50 in 10.0 mi North 11.5 mph 20.7 mph N/A Snow Light Snow
8:15 AM 10.4 °F -4.1 °F 5.0 °F 79% 30.51 in 10.0 mi North 11.5 mph 16.1 mph N/A   Scattered Clouds
8:35 AM 10.4 °F -0.4 °F 5.0 °F 79% 30.51 in 10.0 mi North 6.9 mph 20.7 mph N/A   Scattered Clouds
8:55 AM 10.4 °F -3.3 °F 5.0 °F 79% 30.53 in 5.0 mi North 10.4 mph 18.4 mph N/A Snow Light Snow
9:15 AM 10.4 °F -3.3 °F 6.8 °F 85% 30.53 in 10.0 mi North 10.4 mph 24.2 mph N/A Snow Light Snow
9:35 AM 10.4 °F -7.2 °F 6.8 °F 85% 30.54 in 10.0 mi North 17.3 mph 24.2 mph N/A   Mostly Cloudy
9:55 AM 10.4 °F -2.4 °F 6.8 °F 85% 30.55 in 4.0 mi North 9.2 mph 24.2 mph N/A Snow Light Snow
10:15 AM 12.2 °F -3.1 °F 8.6 °F 85% 30.55 in 5.0 mi North 13.8 mph 23.0 mph N/A Snow Light Snow
10:35 AM 12.2 °F -4.3 °F 6.8 °F 79% 30.56 in 7.0 mi NNW 16.1 mph 21.9 mph N/A Snow Light Snow
10:55 AM 12.2 °F -0.2 °F 6.8 °F 79% 30.57 in 7.0 mi North 9.2 mph 20.7 mph N/A Snow Light Snow
11:15 AM 12.2 °F -3.1 °F 8.6 °F 85% 30.58 in 5.0 mi North 13.8 mph 19.6 mph N/A Snow Light Snow
11:35 AM 14.0 °F -2.0 °F 8.6 °F 79% 30.58 in 5.0 mi NNW 16.1 mph 21.9 mph N/A Snow Light Snow
11:55 AM 14.0 °F -2.0 °F 8.6 °F 79% 30.58 in 7.0 mi NNW 16.1 mph 20.7 mph N/A Snow Light Snow
12:15 PM 14.0 °F -1.4 °F 8.6 °F 79% 30.58 in 10.0 mi North 15.0 mph 21.9 mph N/A Snow Light Snow
12:35 PM 15.8 °F 2.7 °F 8.6 °F 73% 30.58 in 10.0 mi North 11.5 mph 20.7 mph N/A   Mostly Cloudy
12:55 PM 15.8 °F -0.6 °F 8.6 °F 73% 30.58 in 7.0 mi North 18.4 mph 24.2 mph N/A Snow Light Snow
1:15 PM 15.8 °F 0.3 °F 8.6 °F 73% 30.59 in 5.0 mi NNW 16.1 mph 19.6 mph N/A Snow Light Snow
1:35 PM 15.8 °F 2.7 °F 8.6 °F 73% 30.59 in 10.0 mi North 11.5 mph 21.9 mph N/A   Scattered Clouds
1:55 PM 15.8 °F 2.1 °F 8.6 °F 73% 30.59 in 10.0 mi North 12.7 mph 23.0 mph N/A   Scattered Clouds
2:15 PM 15.8 °F 4.2 °F 8.6 °F 73% 30.60 in 10.0 mi North 9.2 mph 20.7 mph N/A   Mostly Cloudy
2:35 PM 17.6 °F 3.2 °F 8.6 °F 68% 30.60 in 10.0 mi NNW 15.0 mph 20.7 mph N/A   Mostly Cloudy
2:55 PM 15.8 °F 5.1 °F 8.6 °F 73% 30.60 in 10.0 mi North 8.1 mph 18.4 mph N/A   Scattered Clouds
3:15 PM 17.6 °F 7.3 °F 8.6 °F 68% 30.60 in 10.0 mi North 8.1 mph 20.7 mph N/A   Mostly Cloudy
3:35 PM 17.6 °F 3.7 °F 8.6 °F 68% 30.61 in 10.0 mi NNW 13.8 mph 19.6 mph N/A   Mostly Cloudy
3:55 PM 15.8 °F 1.4 °F 8.6 °F 73% 30.61 in 10.0 mi NNW 13.8 mph 18.4 mph N/A   Mostly Cloudy
4:15 PM 15.8 °F 2.1 °F 8.6 °F 73% 30.62 in 10.0 mi North 12.7 mph 20.7 mph N/A   Mostly Cloudy
4:35 PM 15.8 °F 3.4 °F 8.6 °F 73% 30.63 in 10.0 mi North 10.4 mph 20.7 mph N/A   Mostly Cloudy
4:55 PM 15.8 °F 0.9 °F 8.6 °F 73% 30.63 in 10.0 mi North 15.0 mph 19.6 mph N/A   Mostly Cloudy
5:15 PM 14.0 °F 0.5 °F 8.6 °F 79% 30.63 in 10.0 mi NNW 11.5 mph - N/A Snow Light Snow
5:35 PM 14.0 °F 0.5 °F 8.6 °F 79% 30.65 in 10.0 mi North 11.5 mph - N/A Snow Light Snow
5:55 PM 14.0 °F 1.2 °F 8.6 °F 79% 30.66 in 10.0 mi North 10.4 mph 17.3 mph N/A   Scattered Clouds
6:15 PM 14.0 °F -0.8 °F 8.6 °F 79% 30.67 in 10.0 mi NNW 13.8 mph - N/A Snow Light Snow
6:35 PM 14.0 °F -0.8 °F 8.6 °F 79% 30.68 in 10.0 mi NNW 13.8 mph - N/A   Mostly Cloudy
6:55 PM 14.0 °F -2.0 °F 8.6 °F 79% 30.68 in 10.0 mi NNW 16.1 mph 19.6 mph N/A   Mostly Cloudy
7:15 PM 14.0 °F -0.8 °F 8.6 °F 79% 30.68 in 10.0 mi NNW 13.8 mph 18.4 mph N/A   Overcast
7:35 PM 14.0 °F -0.2 °F 8.6 °F 79% 30.68 in 10.0 mi NNW 12.7 mph 17.3 mph N/A   Mostly Cloudy
7:55 PM 14.0 °F 2.0 °F 8.6 °F 79% 30.68 in 10.0 mi NNW 9.2 mph - N/A Snow Light Snow
8:15 PM 12.2 °F 1.7 °F 6.8 °F 79% 30.69 in 10.0 mi NW 6.9 mph - N/A   Scattered Clouds
8:35 PM 12.2 °F 4.3 °F 8.6 °F 85% 30.69 in 10.0 mi NNW 4.6 mph - N/A   Clear
8:55 PM 12.2 °F 1.7 °F 8.6 °F 85% 30.69 in 10.0 mi North 6.9 mph - N/A   Clear
9:15 PM 10.4 °F - 8.6 °F 92% 30.69 in 10.0 mi Calm Calm - N/A   Clear
9:35 PM 10.4 °F 0.8 °F 6.8 °F 85% 30.71 in 10.0 mi NW 5.8 mph - N/A   Clear
9:55 PM 10.4 °F 2.2 °F 6.8 °F 85% 30.72 in 10.0 mi NW 4.6 mph - N/A   Clear
10:15 PM 10.4 °F - 6.8 °F 85% 30.71 in 10.0 mi Calm Calm - N/A   Clear
10:35 PM 10.4 °F - 6.8 °F 85% 30.70 in 10.0 mi Calm Calm - N/A   Clear
10:55 PM 10.4 °F 2.2 °F 6.8 °F 85% 30.71 in 10.0 mi WNW 4.6 mph - N/A   Clear
11:15 PM 10.4 °F 2.2 °F 8.6 °F 92% 30.72 in 10.0 mi WNW 4.6 mph - N/A   Clear
11:35 PM 10.4 °F 4.0 °F 8.6 °F 92% 30.72 in 10.0 mi WNW 3.5 mph - N/A   Clear
11:55 PM 10.4 °F - 8.6 °F 92% 30.71 in 10.0 mi Calm Calm - N/A   Clear